Regional Weather Roundup
Issued by NWS Sterling, VA

Home | Current Version | Previous Version | Text Only | Print | Product List | Glossary Off
Versions: 1 2 3 4 5 6 7 8 9 10 11 12 13 14 15 16 17 18 19 20 21 22 23 24 25 26 27 28 29 30 31 32 33 34 35 36 37 38 39 40 41 42 43 44 45 46 47

000
ASUS41 KLWX 281210
RWRLWX

REGIONAL WEATHER ROUNDUP
NATIONAL WEATHER SERVICE BALTIMORE MD/WASHINGTON DC
800 AM EDT TUE JUL 28 2015

Note: "FAIR" indicates few or no clouds below 12,000 feet
with no significant weather and/or obstructions to visibility.
 TC=TEMPERATURE CELSIUS

 * =Non NWS site. Station does not report precipitation (e.g. rain,
    snow, etc.), thunder, or fog.

DCZ001-MDZ009-015-VAZ040>042-051-053>054-281300-
WASHINGTON METRO

CITY           SKY/WX    TMP DP  RH WIND       PRES   REMARKS
WASHINGTON NAT MOSUNNY   79  72  79 CALM      30.01S
DULLES         SUNNY     76  71  85 CALM      30.02S
ANDREWS AFB    SUNNY     74  70  87 CALM      30.01S
FT BELVOIR     SUNNY     74  72  95 CALM      30.01S
QUANTICO       MOSUNNY   76  70  82 CALM      30.02R
COLLEGE PARK*  SUNNY     73  73 100 CALM      30.01S
LEESBURG*      SUNNY     75  73  94 NE3       30.03S FOG
MANASSAS*      SUNNY     73  73 100 CALM      30.02R
GAITHERSBURG*  SUNNY     72  70  94 CALM      30.06S

$$

MDZ006>007-011-014-281300-
BALTIMORE METRO

CITY           SKY/WX    TMP DP  RH WIND       PRES   REMARKS
BWI AIRPORT    CLOUDY    75  73  93 CALM      30.01S FOG
MD SCIENCE CTR   N/A     77  73  87 MISG      30.02R
MARTIN STATE     N/A     75  75 100 CALM      30.03R FOG
ANNAPOLIS      SUNNY     79  71  76 CALM      30.01R
FORT MEADE*    SUNNY     72  70  94 CALM      30.04R

$$

MDZ012-015-019>023-281300-
MARYLAND EASTERN SHORE

CITY           SKY/WX    TMP DP  RH WIND       PRES   REMARKS
OCEAN CITY     SUNNY     79  73  82 CALM      30.02R
SALISBURY      SUNNY     75  73  93 CALM      30.02R
BAY BRIDGE AP*   N/A     77  70  78 CALM      30.01S
CAMBRIDGE*     SUNNY     77  72  83 CALM      30.01S
EASTON*        SUNNY     79  77  94 CALM      30.05S

$$

MDZ017>025-281300-
SOUTHERN MARYLAND

CITY           SKY/WX    TMP DP  RH WIND       PRES   REMARKS
PATUXENT RIVER MOSUNNY   77  71  82 S5        30.01S
ST INIGOES     SUNNY     78  72  81 S6        30.00S
LEONARDTOWN*   SUNNY     73  70  88 CALM      30.03S

$$

MDZ003>005-281300-
NORTH CENTRAL MARYLAND

CITY           SKY/WX    TMP DP  RH WIND       PRES   REMARKS
FREDERICK*       N/A    N/A N/A N/A CALM        N/A
HAGERSTOWN APT PTSUNNY   76  70  82 N6        30.04S HAZE
WESTMINSTER*   FOG       72  70  94 CALM      30.05S VSB 1

$$

MDZ501>502-281300-
WESTERN MARYLAND

CITY           SKY/WX    TMP DP  RH WIND       PRES   REMARKS
OAKLAND*       FOG       64 N/A N/A SE10      30.13S VSB<1/4
CUMBERLAND*    CLOUDY    72  72 100 CALM      30.08S

$$

VAZ025>031-281300-
SHENANDOAH VALLEY

CITY           SKY/WX    TMP DP  RH WIND       PRES   REMARKS
WINCHESTER*    CLOUDY    73  72  94 CALM      30.04R FOG
FRONT ROYAL*   CLOUDY    68  68 100 CALM      30.04R
LURAY*         FOG       70  70 100 CALM      30.05S VSB<1/4
NEW MARKET*    CLOUDY    69  69 100 CALM      30.04S VSB 1/4
STAUNTON*      FOG       71  69  95 CALM      30.08S VSB 1/4
WAYNESBORO*    CLOUDY    68  68 100 CALM      30.07R VSB<1/4

$$

WVZ021-048>050-054>055-281300-
EASTERN WEST VIRGINIA PANHANDLE

CITY           SKY/WX    TMP DP  RH WIND       PRES   REMARKS
MARTINSBURG    MOSUNNY   73  70  90 NE3       30.04S FOG
PETERSBURG*    CLOUDY   N/A N/A N/A CALM      30.07S HAZE

$$

VAZ036>039-050-281300-
CENTRAL FOOTHILLS

CITY           SKY/WX    TMP DP  RH WIND       PRES   REMARKS
CHARLOTTESVILL FOG       72  70  93 N3        30.03R VSB 1/4
CULPEPER*      CLOUDY    71  71 100 CALM      30.04R FOG
ORANGE*        SUNNY     73  72  94 NE3       30.03F
GORDONSVILLE*  FAIR      72  70  94 CALM      30.02S
WARRENTON*     FOG       72  72 100 CALM      30.03R VSB<1/4

$$

VAZ055>057-281300-
NORTH AND CENTRAL PIEDMONT

CITY           SKY/WX    TMP DP  RH WIND       PRES   REMARKS
FREDERICKSBRG* SUNNY     73  73 100 CALM      30.01S
STAFFORD*      SUNNY     71  68  88 CALM      30.06R

$$

NCZ024-NYZ072-PAZ021-071-VAZ022-071-281300-
OTHER REGIONAL OBSERVATIONS

CITY           SKY/WX    TMP DP  RH WIND       PRES   REMARKS
NEW YORK CITY  SUNNY     78  69  73 CALM      30.04S
PHILADELPHIA   MOSUNNY   77  72  84 CALM      30.02S HAZE
PITTSBURGH     SUNNY     72  67  84 NE5       30.05R
ROANOKE        CLOUDY    74  69  85 NE5       30.06S
RICHMOND       MOSUNNY   75  72  90 S3        30.02R
RALEIGH        MOSUNNY   77  72  84 S5        30.02S

$$

ANZ530>537-281300-
MARINE OBSERVATIONS

STATION/POSITION TIME  TEMP    WIND        PRES
                       AIR SEA DIR/SP/G
                 (UTC) (F)     (DEG/KT/KT) (MB)
THOMAS PT LIGHT  1100   77     260/  3     1016.5
BALT KEY BRIDGE  1100   76      30/  4/  5 1015.9R
COVE POINT       1100   75     230/  4/  5 1016.8R
LEWISETTA        1100   76 82  150/  2/  3 1015.7R
SOLOMONS ISLAND  1100      82                N/A

$$




USA.gov is the U.S. government's official web portal to all federal, state and local government web resources and services.